Regional Weather Roundup
Issued by NWS

Home | Current Version | Previous Version | Graphics & Text | Print | Product List | Glossary On
Versions: 1 2 3 4 5 6 7 8 9 10 11 12 13 14 15 16 17 18 19 20 21 22 23 24 25 26 27 28 29 30 31 32 33 34 35 36 37 38 39 40 41 42 43 44 45 46 47 48 49 50
000
ASUS44 KMEG 181510
RWRTN
TENNESSEE HOURLY STATE WEATHER ROUNDUP
NATIONAL WEATHER SERVICE MEMPHIS TN
1000 AM CDT FRI AUG 18 2017

TNZ002-004-019-021-049-052-054-088>092-181600-
WEST TENNESSEE

CITY           SKY/WX    TMP DP  RH WIND       PRES   REMARKS
MEMPHIS INTL   MOSUNNY   82  72  71 CALM      30.05R
NWS MEMPHIS      N/A     81 N/A N/A MISG        N/A
JACKSON        SUNNY     81  69  67 W6        30.04R
DYERSBURG      SUNNY     80  71  74 VRB5      30.04R
SOMERVILLE     SUNNY     81  72  74 VRB5      30.04R
COVINGTON      SUNNY     81  70  69 N6        30.04R
UNION CITY     SUNNY     81  72  74 SW5       30.01R
BOLIVAR        SUNNY     79  72  78 CALM      30.03S
PARIS          SUNNY     79  70  73 SW6       30.01R
HUNTINGDON     SUNNY     81  70  69 NW5       30.01S
LEXINGTON      PTSUNNY   79  72  78 VRB5      30.02S
SELMER         MOSUNNY   77  73  88 W5        30.04R
SAVANNAH       PTSUNNY   79  73  83 CALM      30.03R
$$

TNZ008-025-027-028-033-062-065-066-181600-
NORTH MIDDLE TENNESSEE

CITY           SKY/WX    TMP DP  RH WIND       PRES   REMARKS
NASHVILLE      PTSUNNY   83  67  58 W6        30.01R
PORTLAND       MOSUNNY   81  68  65 W9        29.99S
CLARKSVILLE    SUNNY     80  67  64 W6        30.00R
SMYRNA         MOSUNNY   82  70  66 W6        30.01S
COOKEVILLE     MOSUNNY   79  72  78 CALM      30.00F
GALLATIN       MOSUNNY   82  68  61 VRB6      30.02R
CROSSVILLE     PTSUNNY   74  69  85 W12       30.05S
$$

TNZ061-075-076-078-094-096-097-181600-
SOUTH MIDDLE TENNESSEE

CITY           SKY/WX    TMP DP  RH WIND       PRES   REMARKS
FAYETTEVILLE   PTSUNNY   79  72  78 W5        30.03S
TULLAHOMA        N/A     79  70  73 VRB6      30.04S
WINCHESTER     MOSUNNY   81  72  74 W9        30.03S
MCMINNVILLE    MOSUNNY   81  75  83 W10       30.02S
COLUMBIA       MOSUNNY   81  72  74 W6        30.00S
SHELBYVILLE    MOSUNNY   81  72  74 NW7       30.02S
$$

TNZ017-018-042-046-047-181600-
NORTHEAST TENNESSEE

CITY           SKY/WX    TMP DP  RH WIND       PRES   REMARKS
TRI CITIES     CLOUDY    80  72  76 W9        30.00S
ELIZABETHTON   CLOUDY    79  72  78 W9        30.01S
$$

TNZ012-013-036-069-073-074-181600-
CENTRAL EAST TENNESSEE

CITY           SKY/WX    TMP DP  RH WIND       PRES   REMARKS
KNOXVILLE      CLOUDY    75  72  90 SW8       29.99R
OAK RIDGE      CLOUDY    79  72  79 VRB5      30.00R
DOWNTOWN KNOXV PTSUNNY   75  73  94 VRB5      29.98R
GATLINBURG     CLOUDY    79  72  78 W13       29.99R
MORRISTOWN     CLOUDY    77  73  88 VRB7      29.99R FOG
JACKSBORO      PTSUNNY   81  73  78 VRB3      30.02R
$$

TNZ083-085-099-181600-
SOUTHEAST TENNESSEE

CITY           SKY/WX    TMP DP  RH WIND       PRES   REMARKS
CHATTANOOGA    PTSUNNY   83  71  67 NW8       30.01R
DAYTON         MOSUNNY   84  75  74 W3G12     29.99S HX  92
$$

SKY/WX REPORTED AS FAIR MEANS FEW OR NO CLOUDS BELOW
12 THOUSAND FEET.




USA.gov is the U.S. government's official web portal to all federal, state and local government web resources and services.